User: anonymous   Login
Location: Caltech
(34.1382°N, 118.1253°W)
Time: 19:07:41
(UTC-08:00)
Language:

Cosmos 2219 Rocket - Orbit

View from above orbital plane
View from above orbital plane
View from above satellite
View from above satellite

Ground track
Ground track

The orbit data is extracted from the following two-line orbital elements,

1 22220U 92076B   18048.59450755 -.00000231 +00000-0 -91825-4 0  9990
2 22220 070.9980 262.6737 0015184 260.3416 163.0959 14.16426060305198
Epoch (UTC): 17 February 2018 14:16:05
Eccentricity: 0.0015184
inclination: 70.9980°
perigee height: 826 km
apogee height: 848 km
right ascension of ascending node: 262.6737°
argument of perigee: 260.3416°
revolutions per day: 14.16426060
mean anomaly at epoch: 163.0959°
orbit number at epoch: 30519

The dashed part of the orbit path shows where the satellite is in the earth's shadow,  

DLR